#timestamp,LO_Frequency,Hit,StdDev 
1592096415.8,286047003.6,N
1592096435.7,286047001.4,N
1592096455.5,286047001.6,N
1592096475.3,286047004.3,N
1592096495.2,286047001.7,N
1592096515.0,286047004.3,N
1592096515.9,286047004.3,N
1592096535.8,286047003.5,N
1592096555.6,286047002.9,N
1592096575.4,286047005.9,Y
1592096595.3,286047002.6,P
1592096615.1,286047004.2,P
1592096635.9,286047004.2,P
1592096655.7,286047004.0,Y
1592096675.5,286047000.8,P
1592096695.4,286047001.1,N
1592096715.2,286047000.8,N
1592096735.1,286046999.2,N
1592096736.0,286046999.2,N
1592096755.8,286046998.5,N
1592096775.6,286047000.9,N
1592096795.5,286047000.6,N
1592096815.3,286046999.7,N
1592096835.1,286047000.8,N
1592096855.9,286047002.5,N
1592096875.7,286047000.8,N
1592096895.6,286047000.0,N
1592096915.4,286046999.4,N
1592096935.2,286046998.5,N
1592096955.1,286047001.0,N
1592096956.0,286047001.0,N
1592096975.8,286046998.5,N
1592096995.6,286046998.3,N
1592097015.5,286046999.4,N
1592097035.3,286046999.6,N
1592097055.2,286046999.5,N
1592097075.9,286046999.5,N
1592097095.7,286046999.2,N
1592097115.6,286046996.8,N
1592097135.4,286046997.6,N
1592097155.2,286046997.4,N
1592097175.1,286046999.4,N
1592097176.0,286046999.4,N
1592097195.8,286046999.0,N
1592097215.7,286046999.3,N
1592097235.5,286046998.8,N
1592097255.3,286046997.1,N
1592097275.2,286046997.0,N
1592097295.9,286046996.7,N
1592097315.7,286046995.1,Y
1592097335.6,286046997.7,P
1592097355.4,286046996.9,P
1592097375.3,286046996.5,P
1592097395.1,286046997.2,N
1592097396.0,286046997.2,Y
1592097415.8,286047000.6,P
1592097435.7,286047000.5,N
1592097455.5,286047000.8,N
1592097475.3,286047000.5,N
1592097495.2,286046999.8,N
1592097515.0,286047002.8,N
1592097515.9,286047002.8,N
1592097535.8,286047000.8,N
1592097555.6,286047002.7,N
1592097575.4,286046998.2,N
1592097595.3,286047000.1,N
1592097615.1,286047000.1,N
1592097635.8,286046998.2,N
1592097655.7,286047001.0,N
1592097675.5,286047000.2,N
1592097695.4,286047000.8,N
1592097715.2,286047000.4,N
1592097735.0,286047001.2,N
1592097735.9,286047001.2,N
1592097755.8,286047001.1,N
1592097775.6,286047000.7,N
1592097795.4,286047000.5,N
1592097815.3,286047000.7,N
1592097835.1,286046998.2,N
1592097855.9,286047000.7,N
1592097875.7,286046999.7,N
1592097895.5,286047000.3,N
1592097915.4,286046998.2,N
1592097935.2,286047000.8,N
1592097955.0,286047000.7,N
1592097955.9,286047000.7,N
1592097975.8,286046998.4,N
1592097995.6,286046998.7,N
1592098015.5,286047000.2,N
1592098035.3,286047000.5,N
1592098055.1,286046999.8,N
1592098075.9,286047000.2,N
1592098095.7,286046999.8,N
1592098115.5,286046998.3,N
1592098135.4,286046999.3,N
1592098155.2,286046998.8,N
1592098175.0,286046998.4,N
1592098176.0,286046998.4,N
1592098195.8,286047000.9,N
1592098215.6,286047001.2,N
1592098235.5,286046998.1,N
1592098255.3,286047001.1,N
1592098275.1,286047000.0,N
1592098295.9,286046998.5,N
1592098315.7,286047001.2,N
1592098335.5,286046998.3,N
1592098355.4,286047001.2,N
1592098375.2,286046998.6,N
1592098395.1,286046998.5,N
1592098396.0,286046998.5,N
1592098415.8,286046999.5,N
1592098435.6,286046999.4,N
1592098455.5,286046999.2,N
1592098475.3,286046998.6,N
1592098495.1,286047000.7,N
1592098515.9,286046998.6,N
1592098535.7,286046998.3,N
1592098555.6,286046998.2,N
1592098575.4,286046998.5,N
1592098595.2,286046998.6,N
1592098615.1,286046998.5,N
1592098616.0,286046998.5,N
1592098635.8,286046998.3,N
1592098655.7,286046998.2,N
1592098675.5,286047000.8,N
1592098695.3,286046998.5,N
1592098715.2,286047000.5,N
1592098735.9,286047002.8,N
1592098755.7,286047002.8,N
1592098775.6,286047000.2,N
1592098795.4,286047002.6,N
1592098815.2,286047002.3,N
1592098835.1,286047000.8,N
1592098836.0,286047000.8,N
1592098855.8,286046998.3,N
1592098875.7,286047000.6,N
1592098895.5,286046998.1,N
1592098915.3,286046999.3,N
1592098935.2,286046999.3,N
1592098955.0,286046999.5,N
1592098955.9,286046999.5,N
1592098975.8,286046998.6,N
1592098995.6,286046998.8,N
1592099015.4,286046999.3,N
1592099035.3,286046997.4,N
1592099055.1,286046997.3,N
1592099075.8,286046999.5,N
1592099095.7,286046999.4,N
1592099115.5,286046998.2,N
1592099135.4,286046998.2,N
1592099155.2,286047001.2,N
1592099175.0,286046998.2,N
1592099175.9,286046998.2,N
1592099195.8,286047000.1,N
1592099215.6,286047000.7,N
1592099235.4,286046998.6,N
1592099255.3,286046999.7,N
1592099275.1,286047000.9,N
1592099295.9,286047001.2,N
1592099315.7,286047000.9,N
1592099335.5,286047000.2,N
1592099355.4,286047002.3,N
1592099375.2,286047000.3,N
1592099395.0,286046999.9,N
1592099396.0,286046999.9,N
1592099415.8,286047000.5,N
1592099435.6,286047002.2,N
1592099455.5,286047000.5,N
1592099475.3,286047000.7,N
1592099495.1,286046996.5,N
1592099515.9,286046998.6,N
1592099535.7,286046998.3,N
1592099555.6,286046998.7,N
1592099575.4,286046998.5,N
1592099595.2,286047001.2,N
1592099615.1,286047000.4,N
1592099616.0,286047000.4,N
1592099635.8,286046999.9,N
1592099655.7,286047000.1,N
1592099675.5,286047000.6,N
1592099695.3,286047001.1,N
1592099715.2,286047000.6,N
1592099735.9,286047000.3,N
1592099755.7,286047000.2,N
1592099775.6,286047002.2,N
1592099795.4,286047002.4,N
1592099815.2,286047000.7,N
1592099835.1,286047000.8,N
1592099836.0,286047000.8,N
1592099855.8,286047002.1,N
1592099875.7,286046999.8,N
1592099895.5,286047002.0,N
1592099915.3,286047001.6,N
1592099935.2,286047000.1,N
1592099955.0,286047001.6,N
1592099955.9,286047001.6,N
1592099975.8,286047002.8,N
1592099995.6,286047001.8,N
